Flag for Czech Republic Weather past 2 weeks in Brno, Czech Republic

Now
72 °F

Passing clouds.


Feels Like: 77 °F
Forecast: 59 / 90 °F
Wind: 2 mph from Northeast

Location: Brno / Turany

Current Time: Jul 4, 2015 at 1:29:11 AM

Latest Report: Jul 4, 2015 at 12:00 AM


Visibility: 28 mi

Pressure: 30.29 "Hg

Humidity: 55%

Dew point: 55 °F

Location of BrnoLocation

Historic Weather in Brno — Graph

°F

Brno temperature yesterday

Maximum temperature yesterday: 87 °F (at 4:00 PM)
Minimum temperature yesterday: 61 °F (at 3:00 AM)
Average temperature yesterday: 75 °F

Past Weeks' High & Low Weather Summary

 TemperatureHumidityPressure
High87 °F (Jul 3, 4:00 PM)98% (Jun 23, 6:00 AM)30.33 "Hg (Jun 23, 6:00 AM)
Low49 °F (Jun 24, 5:00 AM)32% (Jul 2, 4:00 PM)29.74 "Hg (Jun 23, 4:00 AM)
Average64 °F64%30.08 "Hg
* Reported Midnight between Jun 18 and Jun 19 — Midnight between Jul 3 and Jul 4, Brno, Weather by CustomWeather, © 2015

Note: Actual official high and low records may vary slightly from our data, if they occured in-between our weather recording intervals... More about our weather records

Advertising

Brno weather history for previous 24 hours

 ConditionsComfort  
Time TempWeatherWind HumidityBarometerVisibility
12:00 AM
Sat, Jul 4
72 °FPassing clouds.2 mph55%30.29 "Hg28 mi
11:00 PM
Fri, Jul 3
72 °FPassing clouds.2 mph55%30.29 "Hg28 mi
10:00 PM73 °FClear.1 mph56%30.29 "Hg28 mi
9:00 PM77 °FSunny.3 mph49%30.26 "Hg31 mi
8:00 PM82 °FSunny.2 mph40%30.24 "Hg31 mi
7:00 PM85 °FSunny.2 mph35%30.24 "Hg28 mi
6:00 PM86 °FPassing clouds.2 mph33%30.24 "Hg28 mi
5:00 PM86 °FPassing clouds.2 mph32%30.25 "Hg28 mi
4:00 PM87 °FPassing clouds.2 mph33%30.27 "Hg28 mi
3:00 PM86 °FPassing clouds.2 mph34%30.28 "Hg28 mi
2:00 PM84 °FPassing clouds.3 mph37%30.29 "Hg28 mi
1:00 PM84 °FSunny.5 mph38%30.29 "Hg28 mi
12:00 PM82 °FSunny.3 mph40%30.30 "Hg28 mi
11:00 AM80 °FSunny.3 mph42%30.30 "Hg28 mi
10:00 AM78 °FSunny.3 mph44%30.31 "Hg28 mi
9:00 AM74 °FSunny.2 mph52%30.32 "Hg28 mi
8:00 AM70 °FSunny.5 mph56%30.33 "Hg28 mi
7:00 AM65 °FSunny.3 mph66%30.32 "Hg25 mi
6:00 AM62 °FSunny.3 mph69%30.32 "Hg25 mi
5:00 AM62 °FSunny.3 mph69%30.30 "Hg19 mi
4:00 AM63 °FClear.5 mph67%30.29 "Hg19 mi
3:00 AM61 °FClear.3 mph70%30.29 "Hg19 mi
2:00 AM66 °FClear.1 mph58%30.28 "Hg19 mi
1:00 AM65 °FClear.5 mph62%30.27 "Hg19 mi
Weather by CustomWeather, © 2015

See weather overviewHow to use our weather pages